Regional Weather Roundup
Issued by NWS

Home | Current Version | Previous Version | Graphics & Text | Print | Product List | Glossary On
Versions: 1 2 3 4 5 6 7 8 9 10 11 12 13 14 15 16 17 18 19 20 21 22 23 24 25 26 27 28 29 30 31 32 33 34 35 36 37 38 39 40 41 42 43 44 45 46 47 48 49 50
406
ASUS45 KABQ 081001
RWRNM
NEW MEXICO REGIONAL WEATHER ROUNDUP
NATIONAL WEATHER SERVICE ALBUQUERQUE NM
300 AM MST MON FEB 08 2016

NOTE: "FAIR" MEANS FEW OR NO CLOUDS BELOW 12,000 FEET AGL WITH NO
       SIGNIFICANT WEATHER OR OBSTRUCTIONS TO VISION.

      THIS PRODUCT IS RELEASED AS TWO VERSIONS.  ONE VERSION NEAR
      THE TOP OF THE HOUR CONTAINING PRELIMINARY DATA FROM ALBUQUERQUE
      AND OTHER STATIONS.  A FINAL VERSION WITH ADDITIONAL DATA IS
      ISSUED ABOUT 10 MINUTES AFTER THE HOUR.

NMZ501-503-504-510>518-081100-
NORTHWEST PLATEAU/NORTHCENTRAL MOUNTAINS

CITY           SKY/WX    TMP DP  RH WIND       PRES   REMARKS
FARMINGTON     CLOUDY    21  17  84 NE8       30.45R WCI  11
SANTA FE       CLOUDY    24  18  77 N8        30.40R WCI  15
TAOS           CLOUDY    10   3  72 N5        30.41S WCI   2

$$
NMZ402-403-502-505>509-081100-
WESTCENTRAL MOUNTAINS/SOUTHWEST MOUNTAINS

CITY           SKY/WX    TMP DP  RH WIND       PRES   REMARKS
GALLUP         CLEAR     17  14  88 CALM      30.46R
SILVER CITY      N/A     34  19  55 N12       30.34F WCI  25

$$
NMZ407-409-411-412-081100-
SOUTHERN DESERTS

CITY           SKY/WX    TMP DP  RH WIND       PRES   REMARKS
DEMING         PTCLDY    36  16  44 NE6       30.32S WCI  31
HOLLOMAN AFB   CLOUDY    33  13  43 NE7       30.32R WCI  26
ALAMOGORDO     CLEAR     36  14  41 CALM      30.33S
T OR C         CLEAR     40  17  39 N9        30.36S WCI  34

$$
NMZ519>523-081100-
CENTRAL VALLEYS/CENTRAL HIGHLANDS

CITY           SKY/WX    TMP DP  RH WIND       PRES   REMARKS
ALBUQUERQUE    CLOUDY    37  19  48 N8        30.41S WCI  31
DOUBLE EAGLE   CLOUDY    24  14  68 NW6       30.42R WCI  16
CLINES CORNERS CLOUDY    22  16  78 SE6       30.38S WCI  14
BELEN          FAIR      25  17  71 N3        30.41S
SOCORRO        NOT AVBL

$$
NMZ524>526-539-540-081100-
SOUTHCENTRAL MOUNTAINS

CITY           SKY/WX    TMP DP  RH WIND       PRES   REMARKS
RUIDOSO        NOT AVBL

$$
NMZ527>531-081100-
NORTHEAST HIGHLANDS/NORTHEAST PLAINS

CITY           SKY/WX    TMP DP  RH WIND       PRES   REMARKS
LAS VEGAS      CLOUDY    20  16  84 S16       30.38S WCI   6
RATON          CLOUDY    17  14  88 SW5       30.37S WCI  10
CLAYTON        CLOUDY    24  14  65 NW10      30.39F WCI  14

$$
NMZ532>537-081100-
EASTCENTRAL PLAINS

CITY           SKY/WX    TMP DP  RH WIND       PRES   REMARKS
TUCUMCARI      CLOUDY    20  14  77 NW6       30.45S WCI  12
CANNON AFB     CLEAR     23  13  67 N9        30.44R WCI  13
CLOVIS AIRPORT CLEAR     21  12  68 N10       30.44S WCI  10

$$
NMZ028-029-538-081100-
SOUTHEAST PLAINS

CITY           SKY/WX    TMP DP  RH WIND       PRES   REMARKS
ROSWELL        CLOUDY    31  15  52 N9        30.49R WCI  23
ARTESIA        CLOUDY    30  21  69 N13       30.49R WCI  20
CARLSBAD       CLOUDY    36  19  50 NE8       30.46R WCI  30
HOBBS          CLEAR     30  16  55 N12       30.44R WCI  21


$$




USA.gov is the U.S. government's official web portal to all federal, state and local government web resources and services.